Flag for U.S.A. Weather past 2 weeks in Decatur, Illinois, U.S.A.

Now
48 °F

Passing clouds.


Feels Like: 46 °F
Forecast: 44 / 64 °F
Wind: 5 mph from North

Location: Decatur Airport


UV Index: 5 (Moderate)

Visibility: 10 mi


Pressure: 30.27 "Hg

Humidity: 71%

Dew point: 39 °F

Location of DecaturLocation

Historic Weather in Decatur

°F

Decatur temperature yesterday

Maximum temperature yesterday: 62 °F (at 3:54 PM)
Minimum temperature yesterday: 40 °F (at 3:54 AM)
Average temperature yesterday: 52 °F

Past Weeks' High & Low Weather Summary

 TemperatureHumidityPressure
High78 °F (Apr 12, 1:54 PM)100% (Apr 3, 5:54 AM)30.32 "Hg (Apr 3, 5:54 AM)
Low30 °F (Apr 15, 5:54 AM)16% (Apr 11, 3:54 PM)29.43 "Hg (Apr 14, 12:54 AM)
Average51 °F64%29.94 "Hg
* Reported Apr 3 3:54 AM — Apr 18 3:54 AM, Decatur, Weather by CustomWeather, © 2014

Note: Actual official high and low records may vary slightly from our data, if they occured in-between our weather recording intervals... More about our weather records

Advertising

Historic Weather Conditions — Data for Previous 24 hours

 ConditionsComfort  
Time TempWeatherWind HumidityBarometerVisibility
3:54 AM
Apr 18
48 °FPassing clouds.5 mph71%30.27 "Hg10 mi
2:54 AM47 °FPassing clouds.3 mph77%30.27 "Hg10 mi
1:54 AM49 °FPassing clouds.6 mph69%30.27 "Hg10 mi
12:54 AM50 °FPassing clouds.9 mph68%30.27 "Hg10 mi
11:54 PM
Apr 17
51 °FOvercast.7 mph66%30.27 "Hg10 mi
10:54 PM52 °FOvercast.6 mph64%30.27 "Hg10 mi
9:54 PM53 °FPassing clouds.8 mph61%30.26 "Hg10 mi
8:54 PM55 °FClear.7 mph55%30.26 "Hg10 mi
7:54 PM57 °FSunny.9 mph53%30.24 "Hg10 mi
6:54 PM60 °FSunny.7 mph46%30.24 "Hg10 mi
5:54 PM61 °FSunny.9 mph44%30.24 "Hg10 mi
4:54 PM61 °FSunny.8 mph42%30.23 "Hg10 mi
3:54 PM62 °FSunny.13 mph41%30.23 "Hg10 mi
2:54 PM61 °FSunny.13 mph42%30.24 "Hg10 mi
1:54 PM61 °FSunny.14 mph42%30.24 "Hg10 mi
12:54 PM60 °FSunny.15 mph42%30.25 "Hg10 mi
11:54 AM59 °FSunny.12 mph44%30.25 "Hg10 mi
10:54 AM57 °FRefreshingly cool.16 mph46%30.25 "Hg10 mi
9:54 AM54 °FSunny.14 mph47%30.24 "Hg10 mi
8:54 AM52 °FSunny.18 mph49%30.23 "Hg10 mi
7:54 AM46 °FSunny.12 mph58%30.21 "Hg10 mi
6:54 AM41 °FClear.12 mph67%30.19 "Hg10 mi
5:54 AM40 °FClear.12 mph68%30.17 "Hg10 mi
4:54 AM41 °FClear.13 mph65%30.16 "Hg10 mi
Weather by CustomWeather, © 2014

See weather overview